Regional Weather Roundup
Issued by NWS

Home | Current Version | Previous Version | Graphics & Text | Print | Product List | Glossary On
Versions: 1 2 3 4 5 6 7 8 9 10 11 12 13 14 15 16 17 18 19 20 21 22 23 24 25 26 27 28 29 30 31 32 33 34 35 36 37 38 39 40 41 42 43 44 45 46 47 48 49 50
000
ASUS43 KOAX 250110
RWRNE

WEATHER ROUNDUP FOR NEBRASKA
NATIONAL WEATHER SERVICE OMAHA NE
800 PM CDT SAT JUN 24 2017

NOTES: SATELLITE DATA IS BEING USED TO AUGMENT CLOUD COVER ABOVE
       12000 FEET.
       "FAIR" INDICATES FEW OR NO CLOUDS BELOW 12,000 FEET WITH NO
       SIGNIFICANT WEATHER AND/OR OBSTRUCTIONS TO VISIBILITY.

  * THESE STATIONS DO NOT REPORT WEATHER SUCH AS RAIN...SNOW OR FOG.

NEZ001>004-019>022-054>056-250200-
NEBRASKA PANHANDLE

CITY           SKY/WX    TMP DP  RH WIND       PRES   REMARKS
SCOTTSBLUFF    SUNNY     70  38  31 NE12      30.26R
ALLIANCE       MOSUNNY   71  36  27 E7        30.27R
CHADRON        SUNNY     73  33  23 NE12      30.24R
GORDON         FAIR      71  35  27 NE7       30.26S
KIMBALL        SUNNY     71  38  30 NE3       30.30R
SIDNEY         MOSUNNY   72  35  25 E8        30.28S
$$

NEZ057>060-069>072-079>082-250200-
SOUTHWEST NEBRASKA

CITY           SKY/WX    TMP DP  RH WIND       PRES   REMARKS
NORTH PLATTE   SUNNY     75  36  24 NE13      30.23R
IMPERIAL       SUNNY     72  43  35 SE5       30.25R
LEXINGTON      SUNNY     75  42  30 NW5       30.22S
MCCOOK         CLOUDY    69  51  52 E6        30.23S
OGALLALA       SUNNY     76  35  22 S5        30.24S
$$

NEZ005>010-023>029-035>040-094-250200-
NORTH CENTRAL NEBRASKA

CITY           SKY/WX    TMP DP  RH WIND       PRES   REMARKS
VALENTINE      SUNNY     75  30  19 N13G21    30.22R
AINSWORTH      SUNNY     72  36  27 N14G21    30.22S
BROKEN BOW     CLOUDY    71  38  29 W6        30.22S
O`NEILL        SUNNY     72  38  28 NW16G23   30.19R
ORD            CLOUDY    71  36  27 W8        30.18F
THEDFORD       MOSUNNY   73  37  26 NW14      30.24F
$$

NEZ041-046>049-061>064-073>077-083>087-250200-
SOUTH CENTRAL NEBRASKA

CITY           SKY/WX    TMP DP  RH WIND       PRES   REMARKS
GRAND ISLAND   CLOUDY    74  39  28 NW9       30.21R
AURORA         CLOUDY    70  47  44 W3        30.20S
HASTINGS       MOSUNNY   74  42  31 W9        30.21S
HEBRON         CLOUDY    74  41  30 W5        30.19S
HOLDREGE       CLOUDY    73  44  35 SW5       30.22S
KEARNEY *      SUNNY     75  37  25 N9        30.22R
YORK           CLOUDY    73  39  29 NW7       30.19S
$$

NEZ011>018-030>034-042>045-250200-
NORTHEAST NEBRASKA

CITY           SKY/WX    TMP DP  RH WIND       PRES   REMARKS
NORFOLK        SUNNY     73  38  27 N15G22    30.14R
ALBION         PTSUNNY   74  32  21 NW7       30.17S
BLAIR          CLOUDY    75  42  30 NW8       30.13R
FREMONT        MOCLDY    73  40  30 NW5       30.14R
TEKAMAH        CLEAR     76  37  24 NW14      30.12R
WAYNE          SUNNY     73  37  27 NW13G21   30.15R
$$

NEZ050>053-065>068-078-088>093-250200-
SOUTHEAST NEBRASKA

CITY           SKY/WX    TMP DP  RH WIND       PRES   REMARKS
LINCOLN        CLOUDY    76  45  33 W7        30.16R
OMAHA EPPLEY   CLOUDY    74  44  34 NW8       30.11R
BEATRICE       PTCLDY    73  45  36 W8        30.17S
FALLS CITY     MOCLDY    73  47  39 W8        30.14R
NEBRASKA CITY  CLEAR     72  50  45 W9        30.14R
PLATTSMOUTH    MOCLDY    73  42  33 NW5       30.14R
$$

NEZ044-045-051>053-067-250200-
OMAHA AREA

CITY           SKY/WX    TMP DP  RH WIND       PRES   REMARKS
OMAHA EPPLEY   CLOUDY    74  44  34 NW8       30.11R
BLAIR          CLOUDY    75  42  30 NW8       30.13R
FREMONT        MOCLDY    73  40  30 NW5       30.14R
MILLARD        PTCLDY    76  44  31 NW7       30.13R
OFFUTT AFB     CLOUDY    74  43  32 NW9       30.11S
PLATTSMOUTH    MOCLDY    73  42  33 NW5       30.14R
WAHOO          FAIR      75  37  25 NW7       30.14R
$$




USA.gov is the U.S. government's official web portal to all federal, state and local government web resources and services.